Tracking 30685 objects as of 17-Jun-2025
HD Live streaming from Space Station
objects crossing your sky now

COSMOS 1275 DEB

Track COSMOS 1275 DEB now!
10-day predictions


NORAD ID: 12749
Int'l Code: 1981-053CS
Perigee: 938.3 km
Apogee: 1,032.0 km
Inclination: 82.8 °
Period: 104.6 minutes
Semi major axis: 7356 km
RCS: 0.0541 m2 (small)
Launch date: June 4, 1981
Source: Commonwealth of Independent States (former USSR) (CIS)
Launch site: PLESETSK MISSILE AND SPACE COMPLEX (PKMTR)

Note: This is SATELLITE DEBRIS
Your satellite tracking list
Your tracking list is empty




NASA's NSSDC Master Catalog

Two Line Element Set (TLE):
1 12749U 81053CS  25167.78422883  .00000352  00000-0  34178-3 0  9999
2 12749  82.8109 351.5373 0063657 118.1452 255.6343 13.76019795195774
Source of the keplerian elements: AFSPC